Lapse_Rate
5.5 5.5 5.5 5.5 5.5 5.6 5.8 5.8 5.7 5.8 6.0 6.1 6.3 6.4 6.5 6.8 7.0 7.2 7.2 7.2 7.3 7.4 7.5 7.5 7.5 7.4 7.8 7.9 7.3 6.5 6.9 7.9 7.8 7.7 8.2 8.9 8.9 9.7 9.6 8.9 9.4 9.3 9.2 9.3 9.3
5.3 5.4 5.4 5.4 5.4 5.6 5.7 5.8 5.8 6.0 6.2 6.4 6.5 6.6 6.6 6.6 6.7 6.9 6.9 7.0 7.0 7.2 7.4 7.5 7.4 7.4 7.5 7.3 7.3 6.8 7.2 8.1 8.2 7.9 7.9 8.6 9.0 9.4 9.4 9.2 9.3 9.3 9.3 9.4 9.3
5.2 5.2 5.3 5.4 5.5 5.6 5.8 6.0 6.3 6.4 6.5 6.6 6.7 6.8 6.9 6.9 6.9 6.8 6.8 6.9 6.8 6.9 7.0 7.2 7.3 7.3 7.6 7.5 7.2 7.0 7.2 7.6 7.7 7.7 8.0 8.1 8.4 9.0 9.3 9.1 9.1 9.2 9.3 9.2 9.1
5.2 5.3 5.4 5.5 5.7 5.8 6.1 6.4 6.5 6.6 6.7 6.7 6.9 6.9 7.1 7.1 7.0 6.9 6.8 6.8 6.7 6.7 6.9 7.0 6.9 7.0 7.3 7.4 7.2 6.9 7.1 7.1 7.2 7.4 7.7 8.0 8.3 8.7 9.1 9.5 9.1 8.8 9.1 9.0 8.9
5.3 5.4 5.5 5.6 5.8 6.1 6.4 6.5 6.6 6.6 6.6 6.8 7.0 7.0 7.1 7.1 7.1 7.2 7.0 6.7 6.7 6.6 6.7 6.6 6.7 6.6 6.6 6.5 6.6 6.5 6.8 7.0 7.2 7.5 8.0 8.3 8.6 8.6 8.8 9.2 9.1 8.7 8.9 9.0 8.8
5.3 5.4 5.6 5.8 6.1 6.4 6.5 6.5 6.6 6.7 6.8 6.8 6.9 6.9 6.9 7.1 7.0 6.9 7.0 6.8 6.9 6.7 6.6 6.5 6.5 6.2 6.1 6.2 6.2 6.4 6.6 6.9 7.5 7.8 8.1 8.2 8.6 8.6 9.4 9.4 9.2 9.1 9.2 9.3 9.1
5.4 5.5 5.8 6.1 6.4 6.5 6.6 6.6 6.6 6.8 6.9 6.9 6.9 7.0 6.9 6.9 7.0 7.3 6.8 6.8 6.9 6.8 6.7 6.5 6.2 6.1 6.1 6.3 6.4 6.5 6.6 7.1 7.7 7.9 8.4 8.0 8.6 9.2 9.3 9.5 9.4 9.4 9.3 9.2 9.0
5.4 5.6 5.9 6.3 6.4 6.6 6.7 6.7 6.8 6.8 6.9 7.0 7.0 7.1 6.9 6.7 6.7 7.0 7.1 7.0 6.7 6.8 6.4 6.3 6.0 6.1 5.9 6.2 6.5 6.5 6.8 7.1 7.9 7.9 8.1 7.9 8.0 8.7 9.2 9.6 9.5 9.6 9.5 8.7 8.6
5.5 5.7 6.1 6.4 6.5 6.7 6.7 6.7 6.7 6.7 6.9 7.0 7.0 7.1 6.9 6.9 7.0 6.7 6.6 6.7 6.9 6.5 6.3 6.2 6.2 6.2 6.4 6.4 6.6 7.0 7.0 7.5 7.8 8.1 7.9 7.9 7.8 8.5 9.2 9.4 9.4 9.6 9.6 9.3 8.9
5.8 6.1 6.3 6.4 6.5 6.6 6.6 6.7 6.8 6.8 6.8 6.9 6.9 6.9 7.0 6.8 6.6 6.7 6.6 6.8 6.8 6.4 6.1 6.0 6.2 6.6 6.6 6.5 6.9 7.2 7.1 7.3 7.5 7.9 8.1 8.1 8.1 8.2 9.0 9.2 9.4 9.5 9.6 9.6 9.2
6.0 6.2 6.3 6.5 6.6 6.6 6.6 6.7 6.8 7.0 6.8 6.8 6.9 6.9 6.8 6.9 6.4 6.5 6.6 6.6 6.6 6.6 6.5 6.1 6.4 7.1 7.2 7.2 7.0 6.7 6.7 6.8 7.5 7.7 8.0 8.0 8.1 8.2 8.7 9.1 9.2 9.3 9.5 9.5 9.5
6.1 6.2 6.3 6.4 6.6 6.7 6.6 6.7 6.7 6.7 7.0 7.0 7.0 7.0 6.8 6.6 6.6 6.8 6.6 6.6 6.7 6.6 6.6 6.6 6.9 7.2 7.1 7.2 6.9 7.0 7.1 7.4 7.5 8.1 8.2 8.2 8.1 8.2 8.5 8.7 9.1 9.3 9.5 9.5 9.5
6.2 6.3 6.2 6.3 6.5 6.6 6.5 6.6 6.7 6.8 7.0 6.9 7.0 6.7 6.9 6.7 6.7 6.7 6.7 6.7 6.6 6.6 6.7 6.6 6.8 7.1 7.0 7.2 7.3 7.7 7.8 8.0 8.0 8.0 7.8 8.1 7.9 8.5 8.7 8.5 8.7 8.9 9.1 9.2 9.3
6.1 6.2 6.2 6.3 6.4 6.4 6.5 6.6 6.8 6.8 7.1 6.9 6.9 7.0 7.0 6.9 7.0 6.9 6.9 6.9 6.9 6.9 6.9 7.0 7.2 7.3 7.5 7.6 7.6 7.6 7.9 8.0 7.9 7.9 7.5 7.8 7.0 8.3 8.3 8.2 8.2 8.6 8.9 9.4 9.6
6.2 6.1 6.2 6.3 6.2 6.4 6.6 6.8 6.9 7.0 6.3 6.9 7.0 7.1 7.1 7.3 7.2 7.1 7.1 7.2 7.3 7.2 7.0 7.3 7.2 7.2 7.4 7.2 7.3 7.3 7.4 7.6 7.8 7.9 7.7 7.9 7.8 7.0 8.1 8.8 8.7 8.9 8.9 9.0 9.4
6.0 6.3 6.2 6.2 6.4 6.4 6.7 6.9 7.1 7.1 7.2 7.2 6.9 7.2 7.3 7.3 7.4 7.3 7.2 7.2 7.2 7.2 7.2 7.3 7.1 6.9 7.0 7.4 7.5 7.4 7.7 8.0 8.0 7.8 7.1 8.2 8.1 7.0 7.3 8.1 8.3 8.3 8.5 8.9 8.9
6.1 6.1 6.5 6.5 6.5 6.6 6.8 7.0 7.0 7.1 7.2 6.8 6.9 7.5 7.6 7.6 7.6 7.4 7.3 7.3 7.2 7.0 7.1 7.4 7.2 7.3 7.5 7.6 8.2 8.3 8.0 7.4 6.2 6.3 6.1 8.2 8.2 7.4 7.7 8.2 8.3 8.1 8.3 8.7 8.9
6.0 6.2 6.3 6.3 6.4 6.6 6.8 6.9 7.0 6.9 6.9 6.9 7.5 8.0 7.6 7.6 7.7 7.7 7.6 7.7 7.3 7.1 7.0 6.7 7.6 8.2 8.1 7.5 7.1 7.6 7.8 7.5 6.1 5.5 6.5 8.1 8.3 8.2 8.2 8.5 8.6 8.7 8.5 8.3 8.4
6.0 6.2 6.2 6.1 6.1 6.4 6.6 6.7 6.6 6.6 6.7 6.8 7.4 7.8 7.6 7.4 7.5 7.5 7.6 7.5 7.1 7.1 7.0 6.7 6.7 7.6 7.9 7.9 7.6 7.3 7.6 7.5 7.6 7.6 7.1 7.8 8.3 8.3 8.5 8.8 9.0 9.2 9.0 8.5 8.7
6.1 6.3 6.0 6.0 5.9 6.3 6.4 6.6 6.4 6.4 6.5 6.9 7.2 7.1 7.2 7.5 7.5 7.3 7.8 7.3 6.8 6.6 6.5 6.5 6.6 7.0 7.2 7.5 7.7 7.4 7.4 7.5 7.4 6.3 6.4 7.3 7.8 8.1 8.4 8.6 8.8 8.7 8.9 8.2 8.3
5.8 6.0 6.0 6.1 6.1 6.2 6.4 6.4 6.2 6.1 6.5 6.7 6.7 6.8 6.9 7.3 7.1 7.1 7.6 7.4 7.2 6.8 6.6 6.5 6.5 6.6 7.0 7.5 7.0 7.4 7.3 7.4 7.4 7.6 6.1 5.6 7.3 8.5 8.6 8.5 8.5 8.8 8.4 7.8 8.0
5.8 5.7 5.7 5.6 5.7 5.9 5.9 5.9 6.2 6.2 6.3 6.5 6.6 6.6 6.5 6.8 7.0 7.1 7.4 7.5 7.2 7.0 6.8 6.7 6.5 6.3 6.5 7.7 7.2 7.1 6.8 7.0 6.9 7.4 7.8 7.7 7.5 8.3 8.5 8.7 8.1 8.3 7.9 7.6 7.6
5.8 5.5 5.5 5.7 5.6 5.5 5.5 5.8 6.0 6.1 6.6 6.6 6.7 6.6 6.6 6.8 6.6 6.8 7.2 7.8 7.2 6.9 6.7 6.4 6.3 6.4 6.5 7.5 7.5 7.4 7.6 7.3 7.5 7.9 7.8 7.3 7.7 7.8 7.8 8.1 7.4 7.7 7.9 7.9 7.5
5.7 5.6 5.4 5.6 5.3 5.4 5.6 6.1 6.5 6.4 6.4 6.2 6.2 6.2 6.4 6.5 6.6 6.2 6.7 7.0 7.3 7.2 6.9 6.7 6.7 6.7 6.4 6.6 6.6 6.8 7.0 7.4 7.6 7.1 7.0 7.2 7.2 7.7 7.9 8.0 7.7 7.6 7.3 7.7 7.4
5.2 5.1 5.4 5.6 5.5 5.6 5.6 5.8 6.0 6.4 6.4 6.1 5.9 6.0 6.0 6.0 6.2 6.2 6.3 6.6 7.4 7.6 7.3 7.0 6.5 6.7 6.7 6.9 6.9 7.0 7.0 6.9 7.1 7.2 7.1 7.2 7.3 7.5 7.5 7.8 7.9 7.5 7.3 7.1 6.8
4.8 5.3 5.3 5.7 5.6 5.5 5.8 5.9 5.9 6.0 5.8 6.0 5.6 5.7 5.9 5.8 5.8 5.9 6.1 6.4 7.1 7.8 7.6 7.5 6.5 6.8 6.8 7.3 7.2 7.0 7.1 7.0 6.8 6.9 7.0 6.7 7.0 7.0 7.0 6.6 6.9 7.3 7.3 7.0 7.1
4.9 4.7 5.0 5.5 5.5 5.4 5.8 5.6 5.7 5.4 6.1 5.9 6.0 6.0 6.3 6.5 5.8 5.5 5.9 6.1 6.6 7.0 7.6 7.5 7.4 7.2 6.8 7.4 7.1 6.9 7.3 6.9 7.0 7.1 7.4 7.3 7.0 6.9 7.0 6.8 6.6 7.3 7.2 6.6 7.1
Wind_Speed
22 22 22 23 23 23 24 24 24 24 23 22 20 19 18 17 18 3 6 11 8 10 4 5 4 5 3 4 5 3 1 4 7 9 11 17 17 14 5 5 4 8 10 16 24
20 20 21 22 22 23 23 23 24 23 23 22 21 19 16 15 4 8 10 13 14 16 4 5 4 5 2 5 3 5 3 8 7 11 9 19 18 19 1 6 1 8 12 24 21
21 22 22 22 23 23 24 24 24 23 22 21 20 19 15 10 4 7 6 13 13 15 1 1 4 1 5 2 5 4 6 12 14 15 17 16 11 8 1 5 7 20 27 25 21
22 23 24 24 25 25 25 25 25 24 22 20 18 16 14 2 3 2 7 9 11 7 1 2 2 3 3 4 6 3 9 8 8 5 3 6 6 10 4 7 14 26 29 27 24
24 24 25 25 26 27 26 26 25 23 21 19 15 12 3 1 9 4 9 9 6 5 4 4 1 2 4 4 8 3 6 8 10 10 11 11 13 8 15 16 17 22 27 27 24
25 26 27 27 28 28 27 27 25 23 20 17 11 5 1 3 5 11 8 6 5 4 3 5 6 3 5 4 3 5 8 10 11 14 11 8 14 4 23 15 18 26 26 25 27
28 29 29 29 30 30 29 28 26 23 18 12 6 3 0 11 3 8 8 6 6 6 4 5 3 2 4 8 6 7 8 12 16 8 9 6 13 10 19 16 20 25 24 23 22
28 30 31 31 32 32 31 29 27 21 12 6 5 2 6 6 6 7 6 5 4 7 6 9 4 4 3 3 8 7 4 5 10 12 10 5 11 19 15 3 15 22 22 22 24
28 30 32 34 33 34 32 32 23 7 4 10 3 2 8 10 2 7 8 9 3 6 5 10 3 3 6 3 6 4 5 6 11 11 8 5 9 12 10 7 4 18 22 22 22
29 31 32 35 33 34 34 23 2 10 3 4 4 3 5 2 4 3 5 6 5 3 3 5 4 2 4 5 5 6 4 6 9 15 7 12 8 7 8 7 9 8 21 23 24
30 31 33 36 35 30 15 3 5 4 1 5 3 4 12 7 1 3 2 1 1 3 1 3 2 8 13 11 14 6 7 14 17 16 3 12 10 12 9 5 8 10 14 22 24
30 32 34 37 37 31 1 5 3 6 8 9 16 10 15 6 3 4 5 4 3 5 1 4 6 15 9 11 10 12 11 12 8 6 4 8 8 8 7 7 8 8 11 15 23
29 31 34 40 40 4 4 4 5 5 2 8 6 5 6 7 5 5 9 5 5 4 5 6 12 7 9 13 12 8 6 5 6 4 6 2 9 8 14 12 9 15 10 11 12
29 30 30 41 4 6 6 9 9 4 4 6 2 6 4 4 4 5 10 4 2 3 5 5 5 5 10 7 2 5 5 5 8 7 7 4 6 8 11 11 15 23 20 20 22
31 28 27 17 4 4 6 10 8 5 3 3 3 2 1 6 2 4 4 3 6 6 2 8 7 13 12 6 7 7 5 5 3 3 4 8 4 6 11 12 20 15 18 19 22
34 31 24 1 2 8 13 10 4 4 1 2 3 2 2 3 4 1 2 3 1 2 2 6 4 4 3 6 4 5 5 7 6 4 4 8 4 4 5 6 9 9 12 18 20
36 36 15 4 4 4 6 4 4 4 7 6 2 4 3 4 3 6 5 3 3 2 5 7 1 5 12 9 10 12 8 6 5 5 6 6 3 5 7 6 4 6 5 11 12
40 36 6 5 15 6 4 5 5 4 4 2 6 7 1 2 3 3 2 4 5 3 3 3 7 8 8 3 4 7 4 4 5 3 7 6 2 5 7 6 3 6 5 7 8
35 4 3 5 11 3 5 4 4 3 3 5 8 5 6 9 5 7 5 5 6 3 5 3 4 6 7 8 2 9 6 4 2 2 3 3 6 4 3 5 9 12 12 11 5
5 5 5 7 11 5 5 3 4 3 2 5 5 4 6 7 8 6 4 3 4 4 3 2 3 3 6 7 3 6 5 5 4 3 4 5 5 4 8 7 8 11 10 7 7
3 4 5 6 5 5 2 5 5 6 3 3 0 3 4 1 3 6 4 5 3 2 7 2 3 6 5 3 7 8 6 3 2 4 4 3 6 7 2 5 5 8 8 5 5
3 3 4 4 3 1 1 4 8 9 4 2 1 2 4 5 4 3 3 2 5 2 4 4 5 2 7 9 3 6 3 4 3 8 4 3 6 7 6 1 3 4 4 2 3
3 4 5 5 1 3 7 6 4 10 7 3 2 3 2 4 4 5 6 7 8 3 4 1 2 4 9 7 5 1 6 4 3 2 5 2 6 3 3 5 7 6 7 5 4
3 4 4 4 2 3 6 5 8 6 5 7 5 2 4 5 1 4 5 4 7 5 8 6 2 5 5 7 4 8 17 19 9 1 5 5 5 6 8 8 7 9 7 4 3
1 4 2 4 5 6 2 3 5 7 2 3 6 4 4 3 6 6 6 7 6 5 5 4 3 3 5 7 7 12 17 7 3 4 3 6 5 5 5 5 5 5 6 6 6
1 2 5 3 4 6 4 3 4 7 4 14 1 5 6 5 1 3 3 2 6 6 2 2 3 2 5 8 12 15 4 2 2 2 5 4 5 1 3 4 6 5 6 6 8
3 4 3 4 4 3 2 6 13 8 8 3 4 4 6 4 4 5 4 6 8 5 4 1 1 1 5 8 9 6 2 3 3 3 4 2 6 5 5 4 3 7 7 9 7
Wind_Direction
351 344 341 338 335 329 326 326 325 324 325 325 325 323 325 321 311 176 243 221 184 179 157 137 169 189 169 255 209 81 95 260 213 166 227 280 303 284 199 142 224 185 152 160 147
343 342 333 329 327 325 321 320 319 317 319 322 323 323 324 326 298 253 243 228 210 154 159 182 216 160 211 226 222 136 135 243 210 217 235 253 268 285 99 156 8 85 116 148 134
337 332 329 327 327 322 319 317 314 313 314 317 321 322 322 319 314 252 339 213 167 166 225 238 252 191 214 237 235 207 225 270 282 236 237 257 275 261 347 193 196 149 149 156 145
335 332 330 328 325 320 316 314 311 311 311 314 319 318 317 258 275 341 56 90 142 157 113 226 259 186 242 264 280 268 265 255 268 276 236 229 242 309 297 259 154 155 162 161 163
333 330 329 326 322 318 315 312 309 308 308 310 313 315 294 44 251 188 124 111 107 135 204 186 242 208 245 268 331 290 287 301 304 310 312 322 310 290 294 295 152 160 166 172 172
332 329 327 325 322 319 316 311 307 303 303 304 301 304 181 260 252 151 141 127 143 182 208 195 226 242 257 274 314 275 310 316 311 307 306 328 293 42 284 279 158 167 176 177 177
336 334 330 325 321 321 317 311 306 303 300 290 265 229 223 243 294 150 171 195 183 174 204 242 236 23 322 327 325 327 355 321 292 285 296 292 301 287 273 273 182 177 179 180 184
338 335 331 327 323 321 317 312 306 300 285 247 191 215 245 256 186 196 195 291 246 197 216 250 263 257 203 281 357 353 12 329 290 297 270 119 276 283 295 232 168 175 177 180 188
337 333 328 324 323 320 319 314 311 285 160 148 128 174 273 306 255 230 161 216 192 237 240 263 240 228 341 42 355 350 251 255 302 300 285 150 257 278 312 341 192 182 184 187 193
331 329 328 325 325 325 325 311 169 110 153 197 253 316 265 286 207 191 201 211 234 268 350 198 43 341 5 79 247 243 236 273 278 290 306 314 275 286 292 321 298 181 189 193 194
333 331 330 325 325 327 336 28 16 357 21 218 217 275 284 293 188 255 224 209 84 29 234 302 78 252 244 207 232 236 257 265 279 281 10 301 292 294 291 306 290 284 180 202 199
333 332 332 327 325 324 255 65 181 221 305 255 250 250 258 266 296 274 127 150 135 228 64 354 261 254 254 249 231 246 253 267 276 263 6 322 307 309 306 282 275 259 273 194 208
333 333 333 327 323 350 298 328 306 72 351 297 231 217 235 144 243 292 149 159 187 219 227 187 246 287 253 265 252 246 220 235 239 306 322 12 324 317 305 317 323 348 313 307 194
333 333 335 332 36 332 301 316 338 98 47 283 223 265 184 131 294 231 188 160 344 271 288 233 265 321 331 309 299 315 263 308 331 12 301 77 283 307 343 347 28 5 20 12 0
331 331 332 327 290 320 263 329 325 60 56 182 222 223 139 147 245 251 181 80 206 239 74 255 324 319 313 307 336 259 348 332 275 297 34 311 46 320 26 345 351 356 -0 26 23
326 324 333 153 253 243 308 308 57 44 334 219 148 219 40 258 259 53 199 39 257 302 261 239 312 55 298 323 353 292 18 21 31 78 18 272 129 333 355 282 326 1 16 27 43
323 318 315 261 241 331 332 32 40 93 330 348 16 5 273 284 292 184 201 166 186 90 309 337 294 332 25 359 349 12 32 340 350 -0 245 289 38 217 234 275 304 340 33 52 43
323 314 207 218 258 2 29 53 69 277 348 349 341 332 300 264 282 25 0 312 52 109 78 77 334 13 359 34 262 281 132 170 289 243 281 307 208 239 208 204 307 11 58 60 40
323 322 280 254 219 114 61 62 202 330 2 5 345 7 346 355 13 29 349 14 34 37 115 56 288 326 23 338 46 322 359 217 156 355 30 276 304 332 267 145 16 8 10 21 28
328 340 281 262 134 60 69 245 276 335 63 36 48 50 6 328 20 358 14 356 89 45 75 350 326 319 323 2 11 118 262 3 2 346 311 301 288 248 314 352 359 360 353 8 352
5 359 260 111 78 52 135 245 289 277 116 78 206 305 280 276 4 340 348 360 56 20 93 121 104 290 21 1 307 327 344 6 126 152 204 280 276 225 264 37 341 341 340 359 353
13 341 281 44 38 66 216 226 304 274 27 355 240 276 343 341 335 5 321 231 331 202 165 209 148 234 249 284 223 179 330 88 118 292 235 194 269 43 28 50 225 279 328 314 11
354 267 298 108 232 326 307 309 305 7 316 92 347 77 108 352 3 342 338 307 341 111 150 223 348 354 346 350 344 44 326 280 187 116 228 189 270 55 28 350 312 330 11 351 9
15 347 319 35 102 44 1 324 336 335 329 21 304 351 355 341 229 270 311 355 28 62 70 81 96 149 197 222 228 305 313 310 297 186 292 230 280 316 354 336 329 344 342 331 331
101 261 227 312 332 335 341 274 318 328 315 18 322 335 309 323 2 12 355 340 343 66 37 93 205 253 256 266 285 290 289 324 51 262 155 263 258 291 323 332 335 351 355 325 312
236 28 340 277 306 3 13 307 331 314 270 294 103 349 33 97 133 310 20 343 257 324 98 17 246 284 276 289 286 291 351 56 329 327 269 287 276 293 305 319 324 335 331 330 312
311 338 106 283 337 34 274 338 317 329 307 158 142 111 3 191 170 212 199 233 226 229 277 217 216 87 266 275 295 293 241 303 203 209 225 254 250 299 282 313 322 342 341 330 340